Location: *
(46.1833°N, 22.7667°E)
Time: 23:21:47
(UTC+00:00)

USA 234 - Pass Details

Date: 17 September 2019
Orbit: 1103 x 1105 km, 123.0° (Epoch: 06 October)

Event Time Altitude Azimuth Distance (km) Brightness Sun altitude
Exits shadow 20:57:42 49° 342° (NNW) 1,389 3.9 -38.1°
Drops below altitude 10° 21:02:41 10° 310° (NW) 2,967 6.1 -38.5°
Sets 21:05:12 0° 307° (NW) 3,927 6.9 -38.7°
